Regional Weather Roundup
Issued by NWS

Home | Current Version | Previous Version | Text Only | Print | Product List | Glossary On
Versions: 1 2 3 4 5 6 7 8 9 10 11 12 13 14 15 16 17 18 19 20 21 22 23 24 25 26 27 28 29 30 31 32 33 34 35 36 37 38 39 40 41 42 43 44 45 46 47 48 49 50
370
ASUS43 KTOP 241708
RWRKS

WEATHER ROUNDUP FOR KANSAS
NATIONAL WEATHER SERVICE GOODLAND KS
1100 AM CST TUE JAN 24 2017

NOTE:  "FAIR" INDICATES FEW OR NO CLOUDS BELOW 12,000 FEET WITH NO
SIGNIFICANT WEATHER AND/OR OBSTRUCTIONS TO VISIBILITY.

KSZ001>006-013>018-027>032-041>047-241800-
NORTHWEST KANSAS

CITY           SKY/WX    TMP DP  RH WIND       PRES   REMARKS
GOODLAND       CLOUDY    30  30 100 N21G29    29.50S WCI  17
HAYS           CLOUDY    38  33  82 NW12      29.45R WCI  30
HILL CITY      CLOUDY    34  33  96 NE6       29.48R FOG
RUSSELL        SUNNY     43  34  70 CALM      29.41S
$$

KSZ061>065-074>080-084>089-241800-
SOUTHWEST KANSAS

CITY           SKY/WX    TMP DP  RH WIND       PRES   REMARKS
DODGE CITY     SUNNY     48  34  58 W16       29.45R
ELKHART          N/A     51  29  42 NW9         N/A
GARDEN CITY    PTSUNNY   36  30  79 NW23G33   29.49R WCI  24
GREAT BEND     SUNNY     51  36  56 SW14      29.42R
LIBERAL          N/A     52  36  54 W15       29.50R
PRATT          SUNNY     50  34  54 SW17      29.44R
$$

KSZ066>073-081>083-090>101-241800-
SOUTHEAST KANSAS

CITY           SKY/WX    TMP DP  RH WIND       PRES   REMARKS
CHANUTE        CLOUDY    53  38  56 SE22      29.55F
COFFEYVILLE    CLOUDY    60  38  43 S22       29.57F
HUTCHINSON     SUNNY     52  38  58 S16G23    29.44F
MEDICINE LODGE   N/A     51  37  58 S10       29.45F
NEWTON         CLOUDY    54  40  59 S21G26    29.46F
PARSONS        CLOUDY    56  39  53 S12G17    29.57F
WICHITA INTL   MOSUNNY   55  40  56 S21       29.47F
WICHITA JABRA  SUNNY     54  38  54 S21G31    29.47F
WICHITA MCCONL SUNNY     56  38  49 S23       29.48F
WINFIELD       SUNNY     59  38  45 S17       29.52R
$$

KSZ007>012-019>026-033>040-048>060-102>105-241800-
NORTHEAST KANSAS

CITY           SKY/WX    TMP DP  RH WIND       PRES   REMARKS
CONCORDIA      MOSUNNY   41  34  76 E16G26    29.48S
EMPORIA        PTSUNNY   47  36  65 SE13G21   29.52F
LAWRENCE       CLOUDY    41  36  82 E15       29.62F
MANHATTAN      MOSUNNY   41  35  79 E16       29.53F
MARYSVILLE     CLOUDY    34  32  93 SE23G31   29.53F WCI  22
OLATHE IND     CLOUDY    38  34  85 E17       29.63F WCI  28
OLATHE EXE     CLOUDY    39  34  82 E15G23    29.62F WCI  31
SALINA         MOSUNNY   48  36  63 SE18G25   29.46F
TOPEKA BILLARD MOSUNNY   39  33  79 E14       29.58F WCI  31
TOPEKA FORBES  CLOUDY    41  34  76 E14       29.56F
$$




USA.gov is the U.S. government's official web portal to all federal, state and local government web resources and services.